This is the latest recevied weather packets stored in our database for station/object DL9GRB-13. If no packets are shown the sender has not sent any weather packets the latest 1 day(s).
| Time | Temp. | Humidity | Pressure | Rain* | Wind** | Luminosity | Snow |
|---|---|---|---|---|---|---|---|
| 1778078768 | 12.78° C | 72% | 1008 hPa | 0 mm | - | 288 W/m² | - |
| 1778076428 | 12.78° C | 71% | 1007.9 hPa | 0 mm | - | 269 W/m² | - |
| 1778072648 | 13.33° C | 71% | 1008.1 hPa | 0 mm | - | 349 W/m² | - |
| 1778072108 | 13.33° C | 72% | 1008 hPa | 0 mm | - | 354 W/m² | - |
| 1778070309 | 12.78° C | 69% | 1007.8 hPa | 0 mm | - | 351 W/m² | - |
| 1778068868 | 12.78° C | 71% | 1007.5 hPa | 0 mm | - | 382 W/m² | - |
| 1778067968 | 13.33° C | 70% | 1007.4 hPa | 0 mm | - | 368 W/m² | - |
| 1778066348 | 12.78° C | 70% | 1007.4 hPa | 0 mm | - | 383 W/m² | - |
| 1778064728 | 12.78° C | 69% | 1007.5 hPa | 0 mm | - | 328 W/m² | - |
| 1778064368 | 12.22° C | 71% | 1007.4 hPa | 0 mm | - | 321 W/m² | - |
| 1778064188 | 12.22° C | 71% | 1007.3 hPa | 0 mm | - | 315 W/m² | - |
| 1778063648 | 12.22° C | 70% | 1007.6 hPa | 0 mm | - | 308 W/m² | - |
| 1778063108 | 12.22° C | 70% | 1007.4 hPa | 0 mm | - | 292 W/m² | - |
| 1778062928 | 12.22° C | 70% | 1007.4 hPa | 0 mm | - | 287 W/m² | - |
| 1778062748 | 11.67° C | 71% | 1007.5 hPa | 0 mm | - | 283 W/m² | - |
| 1778062568 | 11.67° C | 71% | 1007.5 hPa | 0 mm | - | 277 W/m² | - |
| 1778062388 | 11.67° C | 71% | 1007.5 hPa | 0 mm | - | 272 W/m² | - |
| 1778062208 | 11.67° C | 71% | 1007.5 hPa | 0 mm | - | 264 W/m² | - |
| 1778061848 | 11.67° C | 69% | 1007.5 hPa | 0 mm | - | 242 W/m² | - |
| 1778061668 | 11.67° C | 70% | 1007.5 hPa | 0 mm | - | 233 W/m² | - |
| 1778061488 | 11.11° C | 69% | 1007.3 hPa | 0 mm | - | 224 W/m² | - |
| 1778061128 | 11.11° C | 70% | 1007.5 hPa | 0 mm | - | 218 W/m² | - |
| 1778060768 | 11.11° C | 70% | 1007.6 hPa | 0 mm | - | 218 W/m² | - |
| 1778060588 | 11.11° C | 70% | 1007.5 hPa | 0 mm | - | 219 W/m² | - |
| 1778060228 | 11.11° C | 70% | 1007.6 hPa | 0 mm | - | 212 W/m² | - |
* Rain latest hour (hover to see other rain measurements)
** Current wind speed in m/s (hover to see current wind gust speed)